This is the latest recevied weather packets stored in our database for station/object NN5DX-12. If no packets are shown the sender has not sent any weather packets the latest 10 day(s).
| Time | Temp. | Humidity | Pressure | Rain* | Wind** | Luminosity | Snow |
|---|---|---|---|---|---|---|---|
| 1778247317 | 2.22° C | 89% | 1021.6 hPa | 0 mm | - | - | - |
| 1778247017 | 2.22° C | 89% | 1021.6 hPa | 0 mm | - | - | - |
| 1778246717 | 2.22° C | 88% | 1021.8 hPa | 0 mm | - | - | - |
| 1778246417 | 2.78° C | 88% | 1021.8 hPa | 0 mm | - | - | - |
| 1778246117 | 2.78° C | 87% | 1022.3 hPa | 0 mm | - | - | - |
| 1778245817 | 2.78° C | 86% | 1022.4 hPa | 0 mm | - | - | - |
| 1778245517 | 2.78° C | 84% | 1022.3 hPa | 0 mm | - | - | - |
| 1778245217 | 2.78° C | 81% | 1022.1 hPa | 0 mm | - | - | - |
| 1778244917 | 2.78° C | 82% | 1022 hPa | 0 mm | - | - | - |
| 1778244617 | 2.22° C | 83% | 1021 hPa | 0 mm | - | - | - |
| 1778244317 | 1.67° C | 82% | 1020.9 hPa | 0 mm | - | - | - |
| 1778244038 | 1.11° C | 82% | 1020.7 hPa | 0 mm | - | - | - |
| 1778243717 | 1.11° C | 82% | 1020.6 hPa | 0 mm | - | - | - |
| 1778243417 | 1.11° C | 81% | 1020.5 hPa | 0 mm | - | - | - |
| 1778243117 | 1.11° C | 79% | 1020.4 hPa | 0 mm | - | - | - |
| 1778242817 | 1.11° C | 79% | 1020.2 hPa | 0 mm | - | - | - |
| 1778242517 | 1.11° C | 78% | 1020.8 hPa | 0 mm | - | - | - |
| 1778242217 | 1.67° C | 78% | 1020.6 hPa | 0 mm | - | - | - |
| 1778241917 | 1.11° C | 79% | 1020.4 hPa | 0 mm | - | - | - |
| 1778241617 | 1.11° C | 80% | 1020.4 hPa | 0 mm | - | - | - |
| 1778241317 | 1.11° C | 80% | 1020.3 hPa | 0 mm | - | - | - |
| 1778241017 | 1.11° C | 81% | 1020.4 hPa | 0 mm | - | - | - |
| 1778240717 | 1.11° C | 80% | 1020.9 hPa | 0 mm | - | - | - |
| 1778240417 | 1.67° C | 78% | 1021.5 hPa | 0 mm | - | - | - |
| 1778240117 | 1.67° C | 78% | 1021.6 hPa | 0 mm | - | - | - |
* Rain latest hour (hover to see other rain measurements)
** Current wind speed in m/s (hover to see current wind gust speed)